Keokuk, IA

12:27 AM CDT on April 30, 2017 (GMT -0500)
Keokuk Municipal

Weather History for KEOK - January, 2013

Change the Weather History Date:

Saturday, January 19, 2013

  Actual Average Record
Temperature  
Mean Temperature 45 °F -  
Max Temperature 55 °F 32 °F 66 °F (1952)
Min Temperature 33 °F 16 °F -13 °F (1940)
Degree Days  
Heating Degree Days 20    
Moisture  
Dew Point 29 °F    
Average Humidity 52    
Maximum Humidity 70    
Minimum Humidity 31    
Precipitation  
Precipitation 0.00 in - - ()
Sea Level Pressure  
Sea Level Pressure 29.96 in    
Wind  
Wind Speed 13 mph (WSW)    
Max Wind Speed 21 mph    
Max Gust Speed 33 mph    
Visibility 10 miles    
Events      
Averages and records for this station are not official NWS values.
T = Trace of Precipitation, MM = Missing Value Source: NWS Daily Summary

Daily Weather History Graph

Daily Weather History Graph

Search for Another Location

Airport or City:

Trip Planner

Search our weather history database for the weather conditions in past years. The results will help you decide how hot, cold, wet, or windy it might be!

Date:

Astronomy

Jan. 19, 2013 Rise Set
Actual Time 7:24 AM CST 5:08 PM CST
Civil Twilight 6:55 AM CST 5:38 PM CST
Nautical Twilight 6:21 AM CST 6:11 PM CST
Astronomical Twilight 5:49 AM CST 6:44 PM CST
Moon 11:35 AM CST (1/19) 12:59 AM CST (1/19)
Length of Visible Light 10h 43m
Length of Day
9h 43m
First Quarter, 57% of the Moon is Illuminated
Jan 19
First Quarter
Jan 26
Full
Feb 3
Last Quarter
Feb 10
New
Feb 17
First Quarter

Hourly Weather History & Observations

Time (CST) Temp. Windchill Dew Point Humidity Pressure Visibility Wind Dir Wind Speed Gust Speed Precip Events Conditions
12:15 AM 42.8 °F 37.0 °F 28.4 °F 57% 29.98 in 10.0 mi SSW 10.4 mph - N/A   Clear
12:35 AM 41.0 °F 34.7 °F 28.4 °F 61% 29.99 in 10.0 mi SSW 10.4 mph - N/A   Clear
12:55 AM 41.0 °F 34.7 °F 28.4 °F 61% 29.99 in 10.0 mi SSW 10.4 mph - N/A   Clear
1:15 AM 41.0 °F 35.2 °F 28.4 °F 61% 29.98 in 10.0 mi SW 9.2 mph - N/A   Clear
1:35 AM 41.0 °F 34.7 °F 28.4 °F 61% 29.99 in 10.0 mi SSW 10.4 mph - N/A   Clear
1:55 AM 41.0 °F 34.7 °F 28.4 °F 61% 29.99 in 10.0 mi SW 10.4 mph - N/A   Clear
2:15 AM 41.0 °F 34.7 °F 28.4 °F 61% 29.98 in 10.0 mi SSW 10.4 mph - N/A   Clear
2:35 AM 39.2 °F 32.0 °F 28.4 °F 65% 29.98 in 10.0 mi SSW 11.5 mph - N/A   Clear
2:55 AM 39.2 °F 32.5 °F 28.4 °F 65% 29.97 in 10.0 mi SSW 10.4 mph - N/A   Clear
3:15 AM 39.2 °F 32.5 °F 28.4 °F 65% 29.97 in 10.0 mi SSW 10.4 mph - N/A   Clear
3:35 AM 39.2 °F 31.6 °F 28.4 °F 65% 29.96 in 10.0 mi SSW 12.7 mph - N/A   Clear
3:55 AM 39.2 °F 32.0 °F 28.4 °F 65% 29.96 in 10.0 mi SSW 11.5 mph - N/A   Clear
4:15 AM 39.2 °F 31.6 °F 28.4 °F 65% 29.94 in 10.0 mi SSW 12.7 mph - N/A   Clear
4:35 AM 41.0 °F 33.9 °F 28.4 °F 61% 29.94 in 10.0 mi SSW 12.7 mph - N/A   Clear
4:55 AM 41.0 °F 33.1 °F 30.2 °F 65% 29.93 in 10.0 mi SSW 15.0 mph - N/A   Clear
5:15 AM 39.2 °F 30.8 °F 30.2 °F 70% 29.93 in 10.0 mi SSW 15.0 mph - N/A   Clear
5:35 AM 39.2 °F 31.2 °F 30.2 °F 70% 29.93 in 10.0 mi SW 13.8 mph - N/A   Clear
7:15 AM 39.2 °F 32.0 °F 30.2 °F 70% 29.91 in 10.0 mi SW 11.5 mph - N/A   Clear
7:55 AM 39.2 °F 30.8 °F 30.2 °F 70% 29.90 in 10.0 mi SW 15.0 mph 20.7 mph N/A   Clear
8:15 AM 42.8 °F 35.1 °F 30.2 °F 61% 29.90 in 10.0 mi SW 16.1 mph 20.7 mph N/A   Clear
8:35 AM 42.8 °F 35.4 °F 30.2 °F 61% 29.90 in 10.0 mi SW 15.0 mph - N/A   Clear
9:35 AM 46.4 °F 39.2 °F 32.0 °F 57% 29.92 in 10.0 mi SW 18.4 mph 25.3 mph N/A   Clear
9:55 AM 48.2 °F - 33.8 °F 58% 29.92 in 10.0 mi SW 16.1 mph 23.0 mph N/A   Clear
10:15 AM 48.2 °F - 33.8 °F 58% 29.91 in 10.0 mi SW 15.0 mph 23.0 mph N/A   Clear
10:35 AM 48.2 °F - 33.8 °F 58% 29.91 in 10.0 mi SW 17.3 mph - N/A   Clear
10:55 AM 50.0 °F - 33.8 °F 54% 29.90 in 10.0 mi WSW 15.0 mph 19.6 mph N/A   Clear
11:15 AM 51.8 °F - 33.8 °F 50% 29.90 in 10.0 mi WSW 17.3 mph 25.3 mph N/A   Clear
11:35 AM 51.8 °F - 33.8 °F 50% 29.89 in 10.0 mi West 16.1 mph 21.9 mph N/A   Clear
11:55 AM 50.0 °F - 33.8 °F 54% 29.88 in 10.0 mi West 20.7 mph - N/A   Clear
12:15 PM 51.8 °F - 33.8 °F 50% 29.87 in 10.0 mi WSW 18.4 mph 23.0 mph N/A   Clear
12:35 PM 51.8 °F - 33.8 °F 50% 29.87 in 10.0 mi WSW 15.0 mph 25.3 mph N/A   Clear
12:55 PM 53.6 °F - 32.0 °F 44% 29.87 in 10.0 mi WSW 18.4 mph 24.2 mph N/A   Clear
1:15 PM 53.6 °F - 32.0 °F 44% 29.87 in 10.0 mi WSW 13.8 mph 23.0 mph N/A   Clear
1:55 PM 55.4 °F - 30.2 °F 38% 29.86 in 10.0 mi WSW 12.7 mph - N/A   Clear
2:15 PM 55.4 °F - 30.2 °F 38% 29.86 in 10.0 mi WSW 15.0 mph - N/A   Clear
2:35 PM 55.4 °F - 28.4 °F 36% 29.85 in 10.0 mi WSW 19.6 mph 23.0 mph N/A   Clear
2:55 PM 55.4 °F - 28.4 °F 36% 29.85 in 10.0 mi WSW 15.0 mph - N/A   Clear
3:15 PM 55.4 °F - 30.2 °F 38% 29.86 in 10.0 mi WSW 12.7 mph 16.1 mph N/A   Clear
3:35 PM 55.4 °F - 28.4 °F 36% 29.87 in 10.0 mi WSW 17.3 mph 21.9 mph N/A   Clear
3:55 PM 55.4 °F - 26.6 °F 33% 29.88 in 10.0 mi West 19.6 mph 23.0 mph N/A   Clear
4:15 PM 55.4 °F - 24.8 °F 31% 29.89 in 10.0 mi West 15.0 mph 23.0 mph N/A   Clear
4:35 PM 55.4 °F - 26.6 °F 33% 29.90 in 10.0 mi West 15.0 mph - N/A   Clear
4:55 PM 53.6 °F - 26.6 °F 35% 29.91 in 10.0 mi West 9.2 mph - N/A   Clear
5:15 PM 51.8 °F - 26.6 °F 38% 29.93 in 10.0 mi West 11.5 mph - N/A   Clear
5:35 PM 51.8 °F - 26.6 °F 38% 29.94 in 10.0 mi West 13.8 mph 18.4 mph N/A   Clear
5:55 PM 50.0 °F - 26.6 °F 40% 29.96 in 10.0 mi West 11.5 mph - N/A   Clear
6:15 PM 48.2 °F - 28.4 °F 46% 29.97 in 10.0 mi West 12.7 mph - N/A   Clear
6:35 PM 50.0 °F - 28.4 °F 43% 29.99 in 10.0 mi WNW 12.7 mph - N/A   Clear
6:55 PM 50.0 °F - 26.6 °F 40% 30.00 in 10.0 mi NW 18.4 mph 26.5 mph N/A   Clear
7:15 PM 48.2 °F - 28.4 °F 46% 30.01 in 10.0 mi WNW 13.8 mph 21.9 mph N/A   Clear
7:35 PM 46.4 °F 40.1 °F 28.4 °F 50% 30.02 in 10.0 mi WNW 15.0 mph 20.7 mph N/A   Clear
7:55 PM 46.4 °F 40.4 °F 30.2 °F 53% 30.03 in 10.0 mi WNW 13.8 mph 18.4 mph N/A   Clear
8:15 PM 46.4 °F 40.4 °F 30.2 °F 53% 30.04 in 10.0 mi WNW 13.8 mph - N/A   Clear
8:35 PM 46.4 °F 39.0 °F 28.4 °F 50% 30.05 in 10.0 mi WNW 19.6 mph 33.4 mph N/A   Clear
8:55 PM 44.6 °F 37.2 °F 28.4 °F 53% 30.06 in 10.0 mi NW 17.3 mph 21.9 mph N/A   Clear
9:15 PM 44.6 °F 38.1 °F 28.4 °F 53% 30.06 in 10.0 mi NW 13.8 mph 27.6 mph N/A   Clear
9:35 PM 42.8 °F 34.8 °F 30.2 °F 61% 30.08 in 10.0 mi NW 17.3 mph 21.9 mph N/A   Clear
9:55 PM 42.8 °F 35.8 °F 28.4 °F 57% 30.08 in 10.0 mi NW 13.8 mph 19.6 mph N/A   Clear
10:15 PM 42.8 °F 34.5 °F 28.4 °F 57% 30.09 in 10.0 mi NW 18.4 mph 26.5 mph N/A   Scattered Clouds
10:35 PM 41.0 °F 31.9 °F 23.0 °F 49% 30.11 in 10.0 mi NW 19.6 mph 32.2 mph N/A   Scattered Clouds
10:55 PM 39.2 °F 30.5 °F 17.6 °F 42% 30.12 in 10.0 mi NW 16.1 mph 23.0 mph N/A   Clear
11:15 PM 37.4 °F 27.8 °F 15.8 °F 41% 30.14 in 10.0 mi NW 17.3 mph 28.8 mph N/A   Clear
11:35 PM 35.6 °F 25.2 °F 21.2 °F 56% 30.16 in 10.0 mi NNW 18.4 mph 31.1 mph N/A   Clear
11:55 PM 33.8 °F 23.2 °F 23.0 °F 65% 30.18 in 10.0 mi NNW 17.3 mph 27.6 mph N/A   Scattered Clouds